Regional Weather Roundup
Issued by NWS Goodland, KS

Home | Current Version | Previous Version | Graphics & Text | Print | Product List | Glossary On
Versions: 1 2 3 4 5 6 7 8 9 10 11 12 13 14 15 16 17 18 19 20 21 22 23 24 25 26 27 28 29 30 31 32 33 34 35 36 37 38 39 40 41 42 43 44 45 46 47 48 49 50
000
ASUS43 KGLD 280259
RWRGLD

GOODLAND FORECAST AREA HOURLY WEATHER ROUNDUP
NATIONAL WEATHER SERVICE GOODLAND KS
900 PM MDT SUN JUL 27 2014

...OFFICIAL OBSERVATIONS...

CITY           SKY/WX    TMP DP  RH WIND       PRES   REMARKS
GOODLAND KS    PTCLDY    69  52  54 SE8       30.30R
HILL CITY KS   CLEAR     73  53  49 NE6       30.21R
IMPERIAL NEB   MOCLDY    76  50  40 E7        30.27R
MCCOOK NEB     PTCLDY    73  54  51 E3        30.24R
AKRON CO       CLOUDY    74  48  39 E12       30.32R
BURLINGTON CO  MOCLDY    70  50  49 S8        30.32R
LIMON CO       LGT RAIN  72  59  63 SE13      30.38R
$$

...UNOFFICIAL OBSERVATIONS...

CITY           SKY/WX    TMP DP  RH WIND       PRES   REMARKS
COLBY KS       CLEAR     72  57  60 E5        30.28R
NORTON KS      CLEAR     68  46  45 CALM      30.22R
WAKEENEY KS      N/A     73  43  34 MISG        N/A
KIT CARSON CO    N/A     76  52  43 N10         N/A
YUMA CO          N/A     75  49  39 E10         N/A
$$


USA.gov is the U.S. government's official web portal to all federal, state and local government web resources and services.